When you browse on this site, cookies collect data to enhance your experience and personalize the content and advertising you see.
Visit our Privacy Policy to learn more. By continuing to use the site, you agree to this use of cookies and data.
  • In Lithuania
  • List of Countries
  • For 7 days
  • Water Temperature
  • Satellite Maps
  • Weather Map
  • Weather Widgets
  • user-avatar
    Login

    Hourly Weather Otrada

    Today, 26 June, Wednesday

    Time Temperature Precipitation Wind Pressure Humidity
    00:00 +14°C° 0 mm 1 mps 751 mmHg 71%
    01:00 +13°C° 0 mm 0 mps 752 mmHg 72%
    02:00 +12°C° 0 mm 0 mps 752 mmHg 72%
    03:00 +12°C° 0 mm 0 mps 752 mmHg 72%
    04:00 +14°C° 0 mm 1 mps 752 mmHg 73%
    05:00 +15°C° 0 mm 1 mps 751 mmHg 75%
    06:00 +15°C° 0 mm 1 mps 751 mmHg 76%
    07:00 +18°C° 0 mm 1 mps 751 mmHg 72%
    08:00 +18°C° 0 mm 2 mps 751 mmHg 69%
    09:00 +20°C° 0 mm 2 mps 751 mmHg 65%
    10:00 +21°C° 0 mm 2 mps 750 mmHg 62%
    11:00 +21°C° 0 mm 3 mps 750 mmHg 60%
    12:00 +22°C° 0 mm 3 mps 750 mmHg 58%
    13:00 +22°C° 0.1 mm 3 mps 749 mmHg 61%
    14:00 +22°C° 0.1 mm 4 mps 749 mmHg 63%
    15:00 +22°C° 0.1 mm 4 mps 748 mmHg 66%
    16:00 +22°C° 0.4 mm 4 mps 748 mmHg 70%
    17:00 +21°C° 0.4 mm 4 mps 747 mmHg 74%
    18:00 +20°C° 0.4 mm 4 mps 746 mmHg 79%
    19:00 +20°C° 0.2 mm 3 mps 746 mmHg 81%
    20:00 +19°C° 0.2 mm 3 mps 745 mmHg 83%
    21:00 +18°C° 0.2 mm 2 mps 745 mmHg 86%
    22:00 +17°C° 0.6 mm 2 mps 744 mmHg 89%
    23:00 +16°C° 0.6 mm 1 mps 744 mmHg 92%

    Tomorrow, 27 June, Thursday

    Time Temperature Precipitation Wind Pressure Humidity
    00:00 +16°C° 0.6 mm 1 mps 743 mmHg 96%
    01:00 +16°C° 1.4 mm 1 mps 743 mmHg 96%
    02:00 +16°C° 1.4 mm 1 mps 742 mmHg 97%
    03:00 +16°C° 1.4 mm 1 mps 742 mmHg 98%
    04:00 +16°C° 0 mm 1 mps 741 mmHg 97%
    05:00 +16°C° 0 mm 1 mps 741 mmHg 96%
    06:00 +16°C° 0 mm 1 mps 741 mmHg 96%
    07:00 +18°C° 0 mm 1 mps 740 mmHg 94%
    08:00 +17°C° 0 mm 2 mps 740 mmHg 92%
    09:00 +18°C° 0 mm 3 mps 739 mmHg 91%
    10:00 +18°C° 0.5 mm 3 mps 738 mmHg 92%
    11:00 +18°C° 0.5 mm 3 mps 738 mmHg 93%
    12:00 +18°C° 0.5 mm 4 mps 737 mmHg 94%
    13:00 +18°C° 3.9 mm 4 mps 736 mmHg 95%
    14:00 +18°C° 3.9 mm 4 mps 736 mmHg 97%
    15:00 +18°C° 3.9 mm 4 mps 735 mmHg 98%
    16:00 +18°C° 3 mm 4 mps 734 mmHg 98%
    17:00 +18°C° 3 mm 4 mps 733 mmHg 98%
    18:00 +19°C° 3 mm 4 mps 732 mmHg 97%
    19:00 +19°C° 2.7 mm 4 mps 731 mmHg 97%
    20:00 +19°C° 2.7 mm 4 mps 731 mmHg 97%
    21:00 +19°C° 2.7 mm 4 mps 730 mmHg 96%
    22:00 +19°C° 1.6 mm 4 mps 729 mmHg 96%
    23:00 +19°C° 1.6 mm 4 mps 728 mmHg 96%

    Day after tomorrow, 28 June, Friday

    Time Temperature Precipitation Wind Pressure Humidity
    00:00 +19°C° 1.6 mm 4 mps 727 mmHg 96%
    01:00 +18°C° 0.4 mm 4 mps 727 mmHg 96%
    02:00 +18°C° 0.4 mm 4 mps 727 mmHg 96%
    03:00 +18°C° 0.4 mm 4 mps 726 mmHg 96%
    04:00 +18°C° 0 mm 4 mps 726 mmHg 95%
    05:00 +17°C° 0 mm 4 mps 726 mmHg 94%
    06:00 +15°C° 0 mm 5 mps 726 mmHg 93%
    07:00 +15°C° 0 mm 5 mps 725 mmHg 93%
    08:00 +15°C° 0 mm 5 mps 725 mmHg 93%
    09:00 +15°C° 0 mm 6 mps 725 mmHg 92%
    10:00 +15°C° 0.1 mm 6 mps 725 mmHg 90%
    11:00 +16°C° 0.1 mm 6 mps 725 mmHg 88%
    12:00 +16°C° 0.1 mm 6 mps 725 mmHg 86%
    13:00 +16°C° 0.3 mm 7 mps 725 mmHg 86%
    14:00 +15°C° 0.3 mm 7 mps 725 mmHg 86%
    15:00 +15°C° 0.3 mm 7 mps 725 mmHg 86%
    16:00 +15°C° 0.1 mm 7 mps 725 mmHg 85%
    17:00 +14°C° 0.1 mm 6 mps 725 mmHg 85%
    18:00 +14°C° 0.1 mm 6 mps 725 mmHg 85%
    19:00 +13°C° 0.1 mm 6 mps 725 mmHg 86%
    20:00 +11°C° 0.1 mm 6 mps 725 mmHg 87%
    21:00 +10°C° 0.1 mm 6 mps 725 mmHg 88%
    22:00 +10°C° 0.3 mm 6 mps 725 mmHg 90%
    23:00 +10°C° 0.3 mm 6 mps 725 mmHg 93%

    29 June, Saturday

    Time Temperature Precipitation Wind Pressure Humidity
    00:00 +10°C° 0.3 mm 6 mps 725 mmHg 95%
    01:00 +10°C° 0.3 mm 6 mps 725 mmHg 95%
    02:00 +10°C° 0.3 mm 6 mps 725 mmHg 95%
    03:00 +10°C° 0.3 mm 7 mps 725 mmHg 95%
    04:00 +10°C° 0.3 mm 7 mps 725 mmHg 95%
    05:00 +10°C° 0.3 mm 7 mps 725 mmHg 95%
    06:00 +10°C° 0.3 mm 7 mps 725 mmHg 95%
    07:00 +10°C° 0.5 mm 7 mps 726 mmHg 95%
    08:00 +10°C° 0.5 mm 7 mps 726 mmHg 95%
    09:00 +10°C° 0.5 mm 7 mps 727 mmHg 95%
    10:00 +10°C° 0.3 mm 7 mps 728 mmHg 94%
    11:00 +10°C° 0.3 mm 6 mps 728 mmHg 94%
    12:00 +10°C° 0.3 mm 6 mps 729 mmHg 93%
    13:00 +10°C° 0.1 mm 6 mps 730 mmHg 93%
    14:00 +10°C° 0.1 mm 6 mps 730 mmHg 93%
    15:00 +10°C° 0.1 mm 6 mps 731 mmHg 92%
    16:00 +9°C° 0.1 mm 5 mps 732 mmHg 93%
    17:00 +9°C° 0.1 mm 5 mps 732 mmHg 93%
    18:00 +9°C° 0.1 mm 5 mps 733 mmHg 93%
    19:00 +10°C° 0.1 mm 4 mps 733 mmHg 94%
    20:00 +8°C° 0.1 mm 4 mps 733 mmHg 94%
    21:00 +8°C° 0.1 mm 4 mps 734 mmHg 95%
    22:00 +9°C° 0.2 mm 3 mps 734 mmHg 95%
    23:00 +9°C° 0.2 mm 3 mps 734 mmHg 96%

    30 June, Sunday

    Time Temperature Precipitation Wind Pressure Humidity
    00:00 +9°C° 0.2 mm 3 mps 734 mmHg 96%
    01:00 +9°C° 0.4 mm 3 mps 734 mmHg 97%
    02:00 +9°C° 0.4 mm 3 mps 734 mmHg 97%
    03:00 +9°C° 0.4 mm 2 mps 734 mmHg 97%
    04:00 +9°C° 0.6 mm 3 mps 735 mmHg 97%
    05:00 +9°C° 0.6 mm 3 mps 735 mmHg 97%
    06:00 +9°C° 0.6 mm 3 mps 735 mmHg 97%
    07:00 +9°C° 0.5 mm 3 mps 735 mmHg 97%
    08:00 +10°C° 0.5 mm 3 mps 736 mmHg 97%
    09:00 +10°C° 0.5 mm 4 mps 736 mmHg 96%
    10:00 +10°C° 0.7 mm 4 mps 737 mmHg 96%
    11:00 +10°C° 0.7 mm 4 mps 737 mmHg 95%
    12:00 +11°C° 0.7 mm 3 mps 738 mmHg 94%
    13:00 +11°C° 0.3 mm 3 mps 738 mmHg 93%
    14:00 +13°C° 0.3 mm 2 mps 738 mmHg 92%
    15:00 +13°C° 0.3 mm 2 mps 738 mmHg 91%
    16:00 +14°C° 0.1 mm 1 mps 739 mmHg 89%
    17:00 +14°C° 0.1 mm 1 mps 739 mmHg 88%
    18:00 +15°C° 0.1 mm 1 mps 739 mmHg 87%
    19:00 +14°C° 0 mm 1 mps 740 mmHg 88%
    20:00 +14°C° 0 mm 1 mps 740 mmHg 89%
    21:00 +12°C° 0 mm 0 mps 740 mmHg 89%
    22:00 +12°C° 0 mm 1 mps 740 mmHg 89%
    23:00 +12°C° 0 mm 1 mps 741 mmHg 88%

    1 July, Monday

    Time Temperature Precipitation Wind Pressure Humidity
    00:00 +11°C° 0 mm 1 mps 741 mmHg 88%
    01:00 +11°C° 0 mm 1 mps 741 mmHg 88%
    02:00 +11°C° 0 mm 1 mps 741 mmHg 89%
    03:00 +10°C° 0 mm 1 mps 741 mmHg 89%
    04:00 +11°C° 0 mm 1 mps 741 mmHg 89%
    05:00 +12°C° 0 mm 1 mps 742 mmHg 89%
    06:00 +12°C° 0 mm 1 mps 742 mmHg 89%
    07:00 +14°C° 0 mm 1 mps 742 mmHg 85%
    08:00 +15°C° 0 mm 1 mps 742 mmHg 82%
    09:00 +18°C° 0 mm 1 mps 742 mmHg 78%
    10:00 +19°C° 0 mm 1 mps 742 mmHg 74%
    11:00 +20°C° 0 mm 1 mps 742 mmHg 69%
    12:00 +21°C° 0 mm 1 mps 742 mmHg 65%
    13:00 +20°C° 0 mm 0 mps 741 mmHg 63%
    14:00 +20°C° 0 mm 0 mps 741 mmHg 60%
    15:00 +21°C° 0 mm 0 mps 740 mmHg 58%
    16:00 +21°C° 0 mm 0 mps 740 mmHg 59%
    17:00 +20°C° 0 mm 0 mps 740 mmHg 61%
    18:00 +20°C° 0 mm 0 mps 740 mmHg 63%
    19:00 +21°C° 0 mm 1 mps 740 mmHg 67%
    20:00 +19°C° 0 mm 1 mps 740 mmHg 72%
    21:00 +16°C° 0 mm 2 mps 740 mmHg 76%
    22:00 +16°C° 0 mm 2 mps 739 mmHg 78%
    23:00 +15°C° 0 mm 2 mps 739 mmHg 81%
    Show more